Date,TemperatureHighF,TemperatureAvgF,TemperatureLowF,DewpointHighF,DewpointAvgF,DewpointLowF,HumidityHigh,HumidityAvg,HumidityLow,PressureMaxIn,PressureMinIn,WindSpeedMaxMPH,WindSpeedAvgMPH,GustSpeedMaxMPH,PrecipitationSumIn
2013-2-1,4.9,-0.1,-7.0,1.6,-5.5,-10.4,86,75,62,30.41,30.22,9,3,14,0.00
2013-2-2,9.5,6.0,5.0,3.1,2.0,0.7,87,83,72,30.22,30.14,6,2,0,0.00
2013-2-3,19.4,16.4,13.6,12.1,9.2,7.4,89,73,62,30.11,30.07,11,2,14,0.00
2013-2-4,18.7,13.7,5.9,12.5,8.3,1.9,90,79,57,30.08,30.00,7,1,0,0.00
2013-2-5,28.2,23.1,11.4,23.6,18.3,8.6,88,82,78,30.17,29.96,11,4,0,0.00
2013-2-6,32.9,19.1,-0.8,29.6,14.5,-3.3,93,83,69,30.29,30.12,8,2,13,0.00
2013-2-7,34.6,30.4,21.2,32.9,28.7,19.5,95,93,88,30.14,29.96,11,3,15,0.09
2013-2-8,22.1,21.4,19.9,19.6,18.9,17.6,93,90,85,30.29,30.14,12,6,17,0.00
2013-2-9,29.1,26.0,19.7,25.2,22.9,18.0,94,88,82,30.41,30.12,16,5,18,0.00
2013-2-10,42.3,33.4,21.7,41.2,31.8,19.7,98,94,85,30.12,29.42,17,5,21,0.65
2013-2-11,37.6,30.3,24.7,33.8,25.9,19.7,90,83,76,30.04,29.42,22,7,26,0.00
2013-2-12,24.6,21.8,20.2,19.9,16.5,15.4,83,80,72,30.13,30.04,13,4,13,0.00
2013-2-14,32.4,29.9,26.1,25.0,22.1,19.2,88,73,65,30.05,29.92,12,4,19,0.04
2013-2-15,25.9,19.1,10.9,19.7,9.3,3.4,79,66,47,30.28,30.05,11,5,18,0.00
2013-2-16,17.1,10.3,1.9,5.0,1.8,-1.5,87,69,48,30.27,30.21,11,2,17,0.00
2013-2-17,15.6,2.6,-2.5,6.2,-1.7,-4.9,90,82,54,30.28,30.26,4,0,0,0.00
2013-2-20,22.3,17.9,13.0,10.7,9.4,6.9,77,69,59,30.46,30.43,7,2,0,0.00
2013-2-21,25.2,17.9,8.9,23.5,14.1,4.4,94,85,74,30.51,30.13,9,2,14,0.00
2013-2-22,31.9,26.8,23.2,26.2,23.7,21.2,93,88,78,30.12,29.84,10,2,14,0.00
2013-2-23,30.5,25.6,20.6,22.3,19.9,16.3,87,79,65,30.00,29.89,8,3,14,0.01
2013-2-24,40.1,25.5,14.0,26.2,18.7,12.1,93,77,52,30.19,30.00,4,0,0,0.09
2013-2-25,42.0,27.9,14.1,28.4,21.5,12.0,93,78,56,30.22,30.09,6,1,0,0.01
2013-2-26,34.0,29.9,26.1,27.5,25.6,22.9,89,84,74,30.08,29.77,9,2,17,0.00
2013-2-27,31.7,31.4,31.0,30.1,29.7,29.4,96,94,91,29.85,29.81,12,6,14,0.01
2013-2-28,34.3,30.5,23.4,29.9,26.1,18.5,95,84,72,30.19,29.85,12,5,17,0.00